RH
100 100 100 100 100 100 100 100 100 100 99 94 70 68 54 57 71 62 62 78 73 62 44 38 35 32 30 35 45 83 100 100 91 54 57 96 97 100 100 79 75 99 83 100
100 100 100 100 100 100 100 100 100 100 100 100 96 67 56 54 76 73 63 100 84 76 64 47 39 38 34 32 40 36 86 96 100 100 91 72 96 100 100 100 100 100 97 100
94 98 100 94 82 100 100 100 100 100 100 100 96 67 58 55 61 96 97 80 100 97 87 56 45 44 39 38 33 39 41 44 82 100 100 100 100 100 100 100 100 100 100 100
65 84 92 91 94 100 100 100 100 100 100 100 99 86 68 61 59 72 74 72 98 100 100 92 55 59 56 38 39 40 40 66 93 100 100 95 96 92 89 89 93 91 83 79
44 60 61 68 81 90 100 100 100 100 100 100 100 91 74 59 61 64 63 78 81 100 100 100 99 71 75 67 53 40 42 58 60 48 44 41 39 38 38 40 42 43 43 39
46 32 46 53 84 100 98 72 100 100 94 92 92 77 76 84 62 63 58 48 66 90 89 99 100 96 93 92 79 71 63 47 38 34 38 42 49 49 47 42 40 36 39 45
35 28 30 57 76 95 86 84 100 90 86 98 100 100 100 91 70 62 67 52 76 92 72 58 63 83 100 100 100 100 100 82 65 62 54 50 57 57 56 57 62 65 62 56
27 24 40 41 62 78 81 81 99 100 96 91 90 98 87 89 82 69 93 68 41 97 100 90 71 47 64 97 100 100 100 100 87 84 76 70 75 67 66 73 69 67 74 74
17 28 39 37 37 49 57 70 81 94 91 100 100 100 94 79 76 93 94 89 54 57 85 82 65 56 39 51 78 79 78 76 78 69 62 52 53 62 66 72 69 57 56 57
13 21 32 27 37 41 40 38 53 68 76 85 97 100 98 100 100 100 99 100 72 63 81 87 85 93 63 51 61 76 83 91 94 89 63 55 62 66 66 75 73 64 60 57
12 16 21 33 34 46 36 25 31 36 49 59 77 96 98 93 100 100 99 96 100 90 99 85 95 96 81 58 66 76 57 65 90 93 84 78 83 85 73 76 75 69 62 66
18 17 14 29 53 45 39 32 33 35 37 54 66 76 86 100 99 100 100 97 91 100 100 100 100 100 98 79 70 66 48 49 69 96 100 100 95 92 77 83 80 74 62 84
24 22 24 52 100 64 44 40 50 66 57 65 84 98 100 100 100 100 100 100 91 100 100 100 99 100 100 97 94 90 70 66 67 97 100 100 98 86 85 87 82 69 71 100
24 27 31 35 80 59 61 41 40 59 82 85 75 95 100 100 100 100 100 99 86 91 100 100 100 100 100 100 100 93 75 61 80 99 100 98 95 90 95 82 63 84 100 100
18 24 29 67 80 71 71 55 45 55 56 50 66 77 99 100 95 100 100 100 100 100 100 99 100 100 100 99 84 79 85 87 96 86 80 90 98 96 72 70 100 100 100 100
21 29 35 39 82 91 87 63 36 34 54 61 96 100 100 100 100 93 99 100 99 100 96 93 95 100 100 100 97 93 84 79 81 88 92 99 80 77 100 100 100 100 100 100
25 25 34 34 44 46 49 68 38 38 71 97 100 100 100 100 100 87 87 89 90 88 85 69 56 53 66 82 95 78 72 84 95 99 74 89 100 100 100 100 100 100 100 92
25 23 27 34 43 73 54 47 59 55 76 79 77 72 98 100 100 100 100 100 100 98 100 100 100 91 100 100 100 97 87 69 77 100 100 98 98 95 100 100 100 92 79 82
46 38 33 31 32 28 20 22 41 41 39 54 56 73 96 100 100 100 100 100 100 100 100 100 100 100 100 94 88 99 100 100 96 98 91 93 99 100 100 86 75 78 66 54
38 37 30 26 24 25 22 21 19 33 60 56 47 59 79 97 100 100 100 100 100 100 100 100 98 97 92 98 98 99 98 92 90 88 92 99 99 81 80 83 63 50 42 36
32 28 22 17 20 23 23 26 34 44 49 59 74 84 94 98 100 100 100 100 100 97 91 92 93 92 95 95 90 85 82 77 76 84 83 76 78 72 57 50 44 33 30 31
21 20 16 17 20 24 26 28 33 42 48 68 80 79 75 83 86 85 90 93 94 94 92 88 82 75 73 78 79 80 80 71 63 63 64 56 52 48 44 38 30 26 24 23
22 19 16 19 19 24 30 37 44 46 55 61 73 64 58 65 66 65 64 66 68 69 68 65 66 75 82 81 76 68 61 54 45 42 40 44 42 35 32 27 22 20 19 20
16 18 17 17 18 20 27 35 39 42 47 60 62 57 56 60 56 51 52 55 58 58 59 61 60 60 62 59 56 54 46 35 34 34 33 30 26 21 18 17 18 18 16 12
12 13 13 13 16 16 16 16 18 20 26 30 33 35 40 42 40 40 42 46 52 53 54 51 44 41 44 42 34 29 29 29 26 20 18 18 18 18 19 18 15 9 5 5
23 22 20 20 21 21 22 22 22 20 20 20 22 23 24 25 27 32 34 34 34 35 34 31 28 26 26 26 23 21 19 18 19 19 19 18 16 14 10 6 5 4 4 3
26 24 23 21 19 19 19 19 19 20 20 21 21 22 22 23 23 25 26 24 23 22 22 22 20 18 17 17 18 19 19 20 18 15 12 9 6 5 4 4 3 3 3 2
Wind_Speed
72 77 78 71 69 68 65 62 56 51 48 49 44 41 38 31 37 35 29 24 21 24 24 27 27 23 18 16 29 34 37 42 44 43 37 40 43 46 53 52 58 56 55 59
76 74 75 74 68 67 67 63 55 50 50 52 49 48 41 35 39 38 31 29 25 26 25 24 25 27 23 20 21 23 36 38 43 46 49 50 54 55 55 59 60 63 63 70
80 81 83 80 61 67 62 59 58 54 53 58 54 51 41 39 42 37 35 32 31 31 29 26 26 23 25 23 23 26 29 34 38 43 48 54 56 60 57 63 65 68 71 72
78 85 87 72 78 73 70 66 63 60 57 59 56 51 47 42 46 46 46 37 34 36 37 33 29 28 26 25 23 26 28 30 34 38 43 50 50 52 56 58 60 62 61 60
79 81 82 77 78 82 80 70 68 64 62 61 57 54 52 49 43 52 51 42 39 35 39 40 35 33 33 34 29 27 27 29 32 35 37 38 42 43 44 45 48 51 51 52
74 80 79 68 74 81 84 76 73 72 69 61 61 56 49 50 44 50 54 54 47 44 39 37 40 40 38 38 38 36 37 36 38 38 39 40 40 42 44 46 49 50 51 52
74 77 63 72 76 77 80 68 81 80 72 67 62 56 57 57 54 51 57 58 48 46 47 47 45 43 44 43 42 44 44 45 45 44 45 46 46 47 49 51 53 55 57 58
73 70 69 68 70 74 78 76 76 79 77 73 66 67 64 59 55 54 56 59 59 46 48 50 49 47 46 47 45 49 49 50 52 53 55 56 55 55 56 58 60 61 63 65
72 71 75 73 67 62 75 77 80 78 72 70 68 67 63 58 57 59 57 60 61 56 52 53 51 51 51 54 53 54 55 56 57 58 60 61 59 59 61 63 64 65 67 69
72 68 74 72 70 70 76 74 75 79 78 74 71 68 63 62 62 62 58 60 60 57 58 55 53 55 59 59 60 61 59 60 62 61 64 65 64 66 67 69 70 70 72 77
66 68 69 75 74 77 77 71 69 67 70 72 74 73 73 68 65 66 64 60 64 61 60 60 60 62 62 63 61 62 63 66 66 67 68 69 70 72 74 76 76 77 76 84
61 66 66 72 73 77 74 73 69 64 63 62 62 70 72 74 73 68 65 64 64 68 66 64 64 65 68 67 66 67 70 70 70 69 70 72 75 77 80 82 81 80 83 87
59 64 67 70 80 78 74 72 64 65 63 61 57 59 66 71 73 72 69 67 65 67 66 68 68 69 71 73 72 72 73 76 75 73 75 77 81 83 84 85 84 84 89 88
59 65 70 72 76 78 75 71 68 61 62 60 60 62 66 68 71 71 69 69 67 66 69 68 66 67 68 69 73 77 80 79 78 78 79 82 85 87 87 87 89 90 92 97
58 64 66 72 78 78 78 73 68 65 62 57 60 64 66 72 74 73 72 71 70 71 73 73 74 76 78 79 83 83 81 79 82 83 85 86 88 90 93 89 92 97 102 106
53 58 65 70 80 81 79 75 67 62 59 52 54 58 64 69 71 70 70 71 69 70 73 74 75 75 76 78 80 80 82 84 84 86 88 92 94 89 89 96 99 106 108 108
55 56 60 63 72 73 76 77 71 65 62 60 62 64 67 71 72 71 72 72 74 76 76 79 81 79 79 82 86 88 86 86 88 93 94 86 88 95 99 103 107 109 110 112
54 52 51 58 65 75 77 74 79 71 70 70 70 67 67 72 73 72 73 72 73 75 74 76 78 79 77 79 85 88 91 93 89 85 91 97 99 103 105 109 110 112 113 114
47 51 52 53 57 65 69 71 72 68 65 68 72 69 71 75 79 80 82 81 83 83 82 83 82 83 86 90 88 84 86 91 95 99 101 104 106 108 110 111 113 115 116 116
50 51 54 54 55 60 65 66 64 65 65 70 69 69 73 76 80 82 82 85 85 87 88 90 91 91 91 90 92 94 97 100 103 104 107 109 110 111 113 115 115 115 115 115
48 49 49 49 51 55 60 64 67 70 71 70 68 72 74 77 80 82 85 87 89 92 94 94 95 95 96 97 99 101 103 105 107 109 110 111 113 115 114 115 116 115 114 116
47 49 49 46 49 52 58 62 66 70 73 72 74 78 79 81 83 85 87 89 91 94 95 95 97 99 99 101 102 104 107 109 110 111 112 113 113 114 116 116 115 115 115 113
43 46 47 47 50 53 57 62 67 72 75 76 80 83 84 85 86 88 90 91 93 95 96 97 98 100 103 105 106 108 109 110 111 111 112 113 114 114 115 116 115 112 111 111
44 46 48 50 52 56 60 64 68 74 77 81 84 85 86 87 89 89 91 93 95 96 96 98 100 102 105 105 106 108 109 109 110 111 112 112 112 112 113 111 110 110 109 106
44 48 51 53 55 59 62 65 69 71 74 78 82 84 87 88 89 91 91 92 94 96 98 99 101 102 104 105 106 106 108 109 109 108 109 110 109 107 107 107 107 104 100 97
44 47 51 55 58 60 62 65 67 70 73 76 78 80 82 84 86 88 90 92 94 96 98 99 100 101 102 103 104 104 103 104 106 105 104 104 104 104 102 100 97 93 89 87
44 49 53 56 59 61 64 67 69 72 74 76 78 80 82 83 85 87 89 90 92 93 95 96 97 97 97 99 100 101 100 100 100 100 99 99 97 94 92 88 85 84 82 81
Wind_Direction
249 250 251 250 251 254 258 259 266 260 264 264 270 273 277 263 258 259 270 283 289 290 305 319 322 323 310 289 243 236 242 250 256 257 259 266 272 276 271 269 267 267 273 275
244 244 246 248 251 253 254 256 256 251 257 261 264 270 274 257 249 256 260 273 279 283 288 300 312 312 313 305 289 256 241 243 250 260 261 262 262 264 261 261 265 265 266 270
241 243 246 247 252 248 247 251 253 253 249 257 262 270 264 253 245 247 251 257 270 274 277 282 293 303 302 306 302 286 273 262 262 262 261 258 260 258 264 262 264 267 271 277
240 242 243 242 241 245 246 244 245 246 248 252 259 261 260 253 249 246 247 249 258 265 269 273 280 286 288 292 295 291 279 264 258 260 264 267 269 270 272 274 274 275 279 280
243 242 244 241 241 244 243 242 242 241 243 247 250 255 258 259 258 249 248 250 249 257 263 270 274 277 281 285 285 282 279 273 268 267 272 279 277 278 279 282 283 282 284 286
244 243 243 242 240 241 246 245 247 249 249 250 252 258 258 259 255 250 249 250 251 248 251 263 274 274 276 280 282 285 288 286 283 281 281 286 291 294 296 296 295 294 296 298
238 246 241 240 240 243 245 246 247 249 248 247 248 250 252 259 260 260 250 250 245 253 256 258 264 272 272 277 276 279 283 285 287 288 290 292 294 294 293 294 296 297 299 301
237 241 241 239 240 243 246 244 245 247 249 250 248 253 255 255 252 254 249 247 244 247 258 260 261 262 268 273 275 277 282 280 283 285 288 289 292 293 295 298 299 299 300 302
232 232 234 239 238 239 244 243 243 245 247 247 249 252 254 253 249 252 246 247 249 247 249 256 262 265 270 271 275 277 276 278 281 285 288 291 294 295 297 299 299 299 300 303
233 228 230 234 234 236 242 240 242 245 243 243 245 245 246 247 249 251 251 246 248 251 253 255 262 268 272 274 274 277 280 281 282 285 288 291 295 298 300 303 301 298 300 304
232 228 225 228 230 233 236 241 242 241 245 245 242 242 245 247 245 249 252 250 246 249 255 261 264 267 270 274 275 276 281 282 283 284 287 291 293 297 299 301 300 301 300 304
228 227 227 227 229 232 236 237 239 244 243 237 239 240 241 243 246 248 250 252 253 251 254 258 262 266 269 273 275 275 281 286 286 287 288 290 292 294 297 299 300 300 300 305
225 226 226 220 224 232 235 239 238 239 243 239 238 238 238 240 246 248 250 254 255 253 255 259 261 263 267 271 273 277 282 285 288 288 288 290 291 294 297 298 297 297 301 303
224 223 223 224 225 229 232 237 241 239 236 241 244 242 242 243 245 248 250 253 258 258 257 259 262 265 268 271 274 276 281 285 286 287 288 289 292 294 295 296 296 299 300 300
227 225 226 222 226 232 233 236 240 239 240 243 243 241 242 246 247 249 252 254 257 256 255 258 259 263 266 271 273 279 281 282 283 285 288 290 291 292 292 293 296 297 299 302
232 229 229 228 227 232 235 239 240 237 240 235 231 235 241 245 249 250 252 254 254 253 255 257 261 264 268 271 274 276 278 280 281 284 285 286 288 291 292 294 295 297 299 301
230 228 230 231 233 236 236 238 240 238 238 232 229 233 242 247 251 252 253 254 254 255 259 263 263 265 268 270 271 275 278 280 281 282 285 289 289 288 291 291 295 297 299 300
236 237 233 233 231 233 238 235 236 236 234 234 237 235 238 243 245 251 255 258 260 261 262 263 267 270 271 272 273 274 276 279 285 285 284 286 288 290 292 294 296 298 298 299
241 239 238 238 238 239 239 234 232 233 233 232 234 235 237 241 244 245 250 254 256 259 263 266 269 270 270 273 279 280 279 279 281 284 286 288 290 291 293 295 296 297 296 296
234 239 240 238 237 238 240 240 236 233 235 237 237 237 239 243 246 248 250 253 256 258 260 263 267 271 274 274 275 277 279 281 284 285 287 288 290 292 293 294 294 295 295 295
239 243 244 240 238 235 235 234 233 232 233 235 238 240 241 244 246 249 251 254 256 258 261 264 267 269 272 274 276 279 280 283 284 286 288 290 291 292 294 294 295 296 297 298
244 244 244 241 236 235 235 234 234 233 236 239 242 245 245 246 247 249 252 255 257 259 262 265 268 271 274 276 279 280 282 285 287 287 289 291 292 293 294 296 296 295 296 297
246 246 243 240 236 233 234 234 235 237 240 242 245 248 250 251 253 254 255 258 260 262 265 268 271 273 276 278 281 283 285 286 288 289 291 292 292 294 295 294 294 295 296 297
243 243 243 242 239 236 235 237 239 241 243 245 247 250 253 255 258 261 263 264 265 267 270 273 276 277 279 281 283 285 287 288 289 290 291 292 292 291 293 295 295 296 298 298
250 249 249 249 247 246 244 244 245 247 249 250 252 254 256 259 261 264 267 269 270 272 274 276 278 280 281 283 285 286 287 288 289 290 289 290 292 293 295 296 297 297 297 299
257 256 255 255 255 256 256 256 256 256 257 258 259 261 263 265 266 267 269 272 274 276 277 279 280 282 283 284 285 286 287 288 289 290 291 292 294 295 296 296 297 298 299 299
260 261 261 261 261 260 260 261 262 262 264 265 266 268 269 270 272 273 274 275 277 278 279 280 282 283 283 284 285 286 288 289 290 292 293 294 294 294 296 297 298 299 300 301